Time,TemperatureF,DewpointF,PressureIn,WindDirection,WindDirectionDegrees,WindSpeedMPH,WindSpeedGustMPH,Humidity,HourlyPrecipIn,Conditions,Clouds,dailyrainin,SoftwareType,DateUTC
2013-02-21 00:04:00,36.2,16.7,30.00,SE,135,1.8,1.8,45,0.00,,,0.00,WUHU216HW,2013-02-21 08:04:00,
2013-02-21 00:09:00,36.0,17.1,30.00,SSE,158,1.6,2.5,46,0.00,,,0.00,WUHU216HW,2013-02-21 08:09:00,
2013-02-21 00:14:00,36.4,13.7,30.00,SW,236,1.4,2.5,39,0.00,,,0.00,WUHU216HW,2013-02-21 08:14:00,
2013-02-21 00:19:00,36.5,5.4,30.00,West,270,2.5,2.9,27,0.00,,,0.00,WUHU216HW,2013-02-21 08:19:00,
2013-02-21 00:24:00,36.5,8.0,30.00,West,270,1.1,2.9,30,0.00,,,0.00,WUHU216HW,2013-02-21 08:24:00,
2013-02-21 00:29:00,36.5,10.0,30.00,SW,225,1.1,2.9,33,0.00,,,0.00,WUHU216HW,2013-02-21 08:29:00,
2013-02-21 00:34:00,36.7,10.1,30.01,SW,234,1.5,2.0,33,0.00,,,0.00,WUHU216HW,2013-02-21 08:34:00,
2013-02-21 00:39:00,36.5,5.4,30.01,West,270,2.7,2.7,27,0.00,,,0.00,WUHU216HW,2013-02-21 08:39:00,
2013-02-21 00:44:00,36.5,2.8,30.01,SSW,208,1.5,3.4,24,0.00,,,0.00,WUHU216HW,2013-02-21 08:44:00,
2013-02-21 00:49:00,36.5,5.4,30.01,SW,225,3.4,3.4,27,0.00,,,0.00,WUHU216HW,2013-02-21 08:49:00,
2013-02-21 00:54:00,36.5,1.9,30.01,WSW,248,2.7,3.4,23,0.00,,,0.00,WUHU216HW,2013-02-21 08:54:00,
2013-02-21 00:59:00,36.5,1.0,30.01,WNW,293,3.1,3.4,22,0.00,,,0.00,WUHU216HW,2013-02-21 08:59:00,
2013-02-21 01:04:00,36.5,1.0,30.01,WSW,248,2.7,3.4,22,0.00,,,0.00,WUHU216HW,2013-02-21 09:04:00,
2013-02-21 01:10:00,36.4,1.7,30.01,SW,225,2.0,3.4,23,0.00,,,0.00,WUHU216HW,2013-02-21 09:10:00,
2013-02-21 01:15:00,36.0,2.4,30.01,SW,229,1.3,3.4,24,0.00,,,0.00,WUHU216HW,2013-02-21 09:15:00,
2013-02-21 01:20:00,36.0,4.1,30.01,SSE,158,0.5,2.9,26,0.00,,,0.00,WUHU216HW,2013-02-21 09:20:00,
2013-02-21 01:25:00,36.0,6.7,30.01,SSE,158,0.6,1.1,29,0.00,,,0.00,WUHU216HW,2013-02-21 09:25:00,
2013-02-21 01:30:00,36.0,8.2,30.01,SSW,203,1.3,1.3,31,0.00,,,0.00,WUHU216HW,2013-02-21 09:30:00,
2013-02-21 01:35:00,36.0,9.5,30.01,SSE,158,0.4,1.8,33,0.00,,,0.00,WUHU216HW,2013-02-21 09:35:00,
2013-02-21 01:40:00,35.8,11.3,30.01,NW,315,0.6,1.8,36,0.00,,,0.00,WUHU216HW,2013-02-21 09:40:00,
2013-02-21 01:45:00,35.6,11.7,30.02,WSW,254,0.8,1.1,37,0.00,,,0.00,WUHU216HW,2013-02-21 09:45:00,
2013-02-21 01:50:00,35.3,12.1,30.02,SW,225,1.3,1.8,38,0.00,,,0.00,WUHU216HW,2013-02-21 09:50:00,
2013-02-21 01:55:00,35.1,12.5,30.02,SSW,204,1.8,2.0,39,0.00,,,0.00,WUHU216HW,2013-02-21 09:55:00,
2013-02-21 02:00:00,35.1,13.2,30.02,West,270,0.2,2.0,40,0.00,,,0.00,WUHU216HW,2013-02-21 10:00:00,
2013-02-21 02:05:00,34.9,13.6,30.03,West,270,0.2,1.1,41,0.00,,,0.00,WUHU216HW,2013-02-21 10:05:00,
2013-02-21 02:10:00,34.9,13.6,30.03,West,270,0.6,1.1,41,0.00,,,0.00,WUHU216HW,2013-02-21 10:10:00,
2013-02-21 02:15:00,34.6,13.8,30.03,West,270,0.4,1.6,42,0.00,,,0.00,WUHU216HW,2013-02-21 10:15:00,
2013-02-21 02:20:00,34.4,13.1,30.03,SW,225,1.1,1.6,41,0.00,,,0.00,WUHU216HW,2013-02-21 10:20:00,
2013-02-21 02:26:00,34.4,13.1,30.03,WSW,244,0.6,1.6,41,0.00,,,0.00,WUHU216HW,2013-02-21 10:26:00,
2013-02-21 02:31:00,34.6,13.2,30.03,South,180,0.7,1.8,41,0.00,,,0.00,WUHU216HW,2013-02-21 10:31:00,
2013-02-21 02:36:00,34.6,13.2,30.03,West,270,0.9,1.8,41,0.00,,,0.00,WUHU216HW,2013-02-21 10:36:00,
2013-02-21 02:41:00,34.6,12.7,30.03,SSE,158,1.1,1.3,40,0.00,,,0.00,WUHU216HW,2013-02-21 10:41:00,
2013-02-21 02:46:00,34.4,13.6,30.03,SSE,158,0.0,1.3,42,0.00,,,0.00,WUHU216HW,2013-02-21 10:46:00,
2013-02-21 02:51:00,34.2,12.9,30.03,SSE,158,0.0,1.3,41,0.00,,,0.00,WUHU216HW,2013-02-21 10:51:00,
2013-02-21 02:56:00,34.2,13.4,30.03,SSE,158,0.4,0.4,42,0.00,,,0.00,WUHU216HW,2013-02-21 10:56:00,
2013-02-21 03:01:00,34.2,14.0,30.03,WNW,293,0.9,1.1,43,0.00,,,0.00,WUHU216HW,2013-02-21 11:01:00,
2013-02-21 03:06:00,34.0,13.2,30.03,SW,225,2.9,2.9,42,0.00,,,0.00,WUHU216HW,2013-02-21 11:06:00,
2013-02-21 03:11:00,33.8,13.6,30.03,SW,225,0.5,2.9,43,0.00,,,0.00,WUHU216HW,2013-02-21 11:11:00,
2013-02-21 03:16:00,33.7,13.4,30.03,West,270,0.0,2.7,43,0.00,,,0.00,WUHU216HW,2013-02-21 11:16:00,
2013-02-21 03:21:00,33.5,13.8,30.03,West,270,0.0,1.3,44,0.00,,,0.00,WUHU216HW,2013-02-21 11:21:00,
2013-02-21 03:26:00,33.3,14.1,30.04,NNE,23,0.6,1.1,45,0.00,,,0.00,WUHU216HW,2013-02-21 11:26:00,
2013-02-21 03:32:00,33.1,13.4,30.04,NNE,23,1.3,1.6,44,0.00,,,0.00,WUHU216HW,2013-02-21 11:32:00,
2013-02-21 03:37:00,32.8,12.1,30.05,West,270,1.8,1.8,42,0.00,,,0.00,WUHU216HW,2013-02-21 11:37:00,
2013-02-21 03:42:00,32.8,12.1,30.04,WSW,248,0.4,1.8,42,0.00,,,0.00,WUHU216HW,2013-02-21 11:42:00,
2013-02-21 03:47:00,32.8,12.1,30.04,WSW,248,0.0,1.8,42,0.00,,,0.00,WUHU216HW,2013-02-21 11:47:00,
2013-02-21 03:52:00,32.9,11.8,30.04,SE,135,1.6,2.0,41,0.00,,,0.00,WUHU216HW,2013-02-21 11:52:00,
2013-02-21 03:57:00,33.1,11.9,30.04,ENE,68,0.7,2.0,41,0.00,,,0.00,WUHU216HW,2013-02-21 11:57:00,
2013-02-21 04:02:00,33.1,11.9,30.04,ENE,68,0.7,1.3,41,0.00,,,0.00,WUHU216HW,2013-02-21 12:02:00,
2013-02-21 04:07:00,33.3,12.1,30.04,ENE,68,1.8,1.8,41,0.00,,,0.00,WUHU216HW,2013-02-21 12:07:00,
2013-02-21 04:12:00,33.1,11.9,30.04,NNE,23,0.6,2.0,41,0.00,,,0.00,WUHU216HW,2013-02-21 12:12:00,
2013-02-21 04:17:00,32.9,11.8,30.04,WSW,250,2.7,3.8,41,0.00,,,0.00,WUHU216HW,2013-02-21 12:17:00,
2013-02-21 04:22:00,32.8,11.6,30.04,West,270,0.0,3.8,41,0.00,,,0.00,WUHU216HW,2013-02-21 12:22:00,
2013-02-21 04:27:00,32.6,11.4,30.03,West,270,0.3,2.5,41,0.00,,,0.00,WUHU216HW,2013-02-21 12:27:00,
2013-02-21 04:33:00,32.6,9.0,30.03,West,270,1.5,1.8,37,0.00,,,0.00,WUHU216HW,2013-02-21 12:33:00,
2013-02-21 04:38:00,32.4,9.6,30.03,WNW,288,0.7,1.8,38,0.00,,,0.00,WUHU216HW,2013-02-21 12:38:00,
2013-02-21 04:43:00,32.4,10.2,30.04,WNW,293,0.3,1.1,39,0.00,,,0.00,WUHU216HW,2013-02-21 12:43:00,
2013-02-21 04:48:00,32.4,10.8,30.04,WNW,293,0.0,0.9,40,0.00,,,0.00,WUHU216HW,2013-02-21 12:48:00,
2013-02-21 04:53:00,32.4,10.8,30.04,WNW,293,0.7,0.9,40,0.00,,,0.00,WUHU216HW,2013-02-21 12:53:00,
2013-02-21 04:58:00,32.4,10.8,30.04,WNW,293,1.6,1.8,40,0.00,,,0.00,WUHU216HW,2013-02-21 12:58:00,
2013-02-21 05:03:00,32.4,10.8,30.05,WNW,293,0.3,1.8,40,0.00,,,0.00,WUHU216HW,2013-02-21 13:03:00,
2013-02-21 05:08:00,32.4,9.6,30.05,WNW,293,0.4,1.8,38,0.00,,,0.00,WUHU216HW,2013-02-21 13:08:00,
2013-02-21 05:13:00,32.6,9.6,30.05,WNW,293,1.3,1.8,38,0.00,,,0.00,WUHU216HW,2013-02-21 13:13:00,
2013-02-21 05:18:00,32.8,9.2,30.05,WNW,293,0.9,1.8,37,0.00,,,0.00,WUHU216HW,2013-02-21 13:18:00,
2013-02-21 05:23:00,32.9,8.7,30.05,WNW,293,0.4,2.0,36,0.00,,,0.00,WUHU216HW,2013-02-21 13:23:00,
2013-02-21 05:28:00,33.1,8.9,30.05,WNW,293,0.5,2.0,36,0.00,,,0.00,WUHU216HW,2013-02-21 13:28:00,
2013-02-21 05:33:00,33.1,8.9,30.05,WNW,293,0.0,1.1,36,0.00,,,0.00,WUHU216HW,2013-02-21 13:33:00,
2013-02-21 05:38:00,33.3,8.5,30.05,WNW,293,0.0,0.4,35,0.00,,,0.00,WUHU216HW,2013-02-21 13:38:00,
2013-02-21 05:43:00,33.3,8.5,30.05,WNW,293,0.0,0.0,35,0.00,,,0.00,WUHU216HW,2013-02-21 13:43:00,
2013-02-21 05:49:00,33.3,4.4,30.06,WNW,293,0.7,1.3,29,0.00,,,0.00,WUHU216HW,2013-02-21 13:49:00,
2013-02-21 05:54:00,33.1,4.2,30.07,WNW,293,0.4,1.3,29,0.00,,,0.00,WUHU216HW,2013-02-21 13:54:00,
2013-02-21 05:59:00,33.1,4.2,30.07,WNW,293,1.6,1.6,29,0.00,,,0.00,WUHU216HW,2013-02-21 13:59:00,
2013-02-21 06:04:00,33.3,3.5,30.07,WNW,293,1.1,1.6,28,0.00,,,0.00,WUHU216HW,2013-02-21 14:04:00,
2013-02-21 06:09:00,33.3,1.8,30.07,WNW,293,1.1,1.6,26,0.00,,,0.00,WUHU216HW,2013-02-21 14:09:00,
2013-02-21 06:14:00,33.3,1.8,30.06,WNW,293,1.8,1.8,26,0.00,,,0.00,WUHU216HW,2013-02-21 14:14:00,
2013-02-21 06:19:00,33.3,0.0,30.07,WNW,293,3.4,3.6,24,0.00,,,0.00,WUHU216HW,2013-02-21 14:19:00,
2013-02-21 06:24:00,33.3,-2.6,30.08,WNW,293,3.5,3.8,21,0.00,,,0.00,WUHU216HW,2013-02-21 14:24:00,
2013-02-21 06:29:00,33.5,-3.3,30.08,WNW,293,1.4,3.8,20,0.00,,,0.00,WUHU216HW,2013-02-21 14:29:00,
2013-02-21 06:34:00,33.5,-2.4,30.07,WNW,293,1.3,2.5,21,0.00,,,0.00,WUHU216HW,2013-02-21 14:34:00,
2013-02-21 06:39:00,33.7,-2.3,30.08,WNW,293,1.8,2.5,21,0.00,,,0.00,WUHU216HW,2013-02-21 14:39:00,
2013-02-21 06:44:00,33.8,-4.5,30.08,WNW,293,2.0,2.5,19,0.00,,,0.00,WUHU216HW,2013-02-21 14:44:00,
2013-02-21 06:49:00,34.0,-2.9,30.08,West,270,1.8,2.0,20,0.00,,,0.00,WUHU216HW,2013-02-21 14:49:00,
2013-02-21 06:54:00,34.2,-8.4,30.08,WSW,248,1.8,2.5,16,0.00,,,0.00,WUHU216HW,2013-02-21 14:54:00,
2013-02-21 06:59:00,34.4,-11.1,30.08,WSW,248,1.8,2.5,14,0.00,,,0.00,WUHU216HW,2013-02-21 14:59:00,
2013-02-21 07:05:00,34.6,-10.9,30.08,South,180,1.6,2.0,14,0.00,,,0.00,WUHU216HW,2013-02-21 15:05:00,
2013-02-21 07:10:00,34.7,-9.4,30.08,South,180,0.5,2.0,15,0.00,,,0.00,WUHU216HW,2013-02-21 15:10:00,
2013-02-21 07:15:00,34.9,-10.6,30.08,SSE,158,0.0,1.6,14,0.00,,,0.00,WUHU216HW,2013-02-21 15:15:00,
2013-02-21 07:20:00,35.3,-8.8,30.09,SSW,195,0.6,1.1,15,0.01,,,0.01,WUHU216HW,2013-02-21 15:20:00,
2013-02-21 07:25:00,35.5,-10.1,30.08,WSW,248,1.3,1.3,14,0.01,,,0.01,WUHU216HW,2013-02-21 15:25:00,
2013-02-21 07:30:00,35.6,-10.0,30.08,NW,315,0.4,1.8,14,0.01,,,0.01,WUHU216HW,2013-02-21 15:30:00,
2013-02-21 07:35:00,35.8,-8.4,30.09,NW,315,0.9,1.8,15,0.01,,,0.01,WUHU216HW,2013-02-21 15:35:00,
2013-02-21 07:40:00,35.8,-8.4,30.09,NW,315,1.3,1.3,15,0.01,,,0.01,WUHU216HW,2013-02-21 15:40:00,
2013-02-21 07:45:00,36.0,-13.9,30.09,NW,312,1.0,3.4,11,0.01,,,0.01,WUHU216HW,2013-02-21 15:45:00,
2013-02-21 07:50:00,36.2,-15.2,30.09,SSW,197,0.9,3.4,10,0.01,,,0.01,WUHU216HW,2013-02-21 15:50:00,
2013-02-21 07:55:00,36.4,-15.1,30.09,South,178,1.3,1.8,9,0.01,,,0.01,WUHU216HW,2013-02-21 15:55:00,
2013-02-21 08:00:00,36.5,-14.9,30.09,South,180,1.6,1.8,10,0.01,,,0.01,WUHU216HW,2013-02-21 16:00:00,
2013-02-21 08:06:00,36.7,-14.7,30.10,SSE,159,1.2,1.8,10,0.01,,,0.01,WUHU216HW,2013-02-21 16:06:00,
2013-02-21 08:11:00,37.1,-14.5,30.10,South,172,0.6,1.8,9,0.01,,,0.01,WUHU216HW,2013-02-21 16:11:00,
2013-02-21 08:16:00,37.3,-14.4,30.10,SSW,203,1.8,1.8,9,0.01,,,0.01,WUHU216HW,2013-02-21 16:16:00,
2013-02-21 08:21:00,37.6,-14.0,30.10,SSW,211,1.0,1.8,7,0.00,,,0.01,WUHU216HW,2013-02-21 16:21:00,
2013-02-21 08:26:00,37.8,-13.9,30.10,WSW,251,1.0,1.6,7,0.00,,,0.01,WUHU216HW,2013-02-21 16:26:00,
2013-02-21 08:31:00,38.0,-13.8,30.10,SSW,207,1.0,1.6,5,0.00,,,0.01,WUHU216HW,2013-02-21 16:31:00,
2013-02-21 08:36:00,38.2,-13.7,30.10,WSW,248,1.1,1.3,4,0.00,,,0.01,WUHU216HW,2013-02-21 16:36:00,
2013-02-21 08:41:00,38.5,-13.3,30.10,WSW,248,1.8,2.0,3,0.00,,,0.01,WUHU216HW,2013-02-21 16:41:00,
2013-02-21 08:46:00,38.5,-13.3,30.10,SW,225,2.5,2.5,1,0.00,,,0.01,WUHU216HW,2013-02-21 16:46:00,
2013-02-21 08:51:00,38.5,-13.3,30.10,West,270,4.0,4.0,1,0.00,,,0.01,WUHU216HW,2013-02-21 16:51:00,
2013-02-21 08:56:00,38.5,-13.3,30.10,WSW,248,3.4,4.0,1,0.00,,,0.01,WUHU216HW,2013-02-21 16:56:00,
2013-02-21 09:01:00,38.5,-13.3,30.10,WSW,248,4.0,4.3,2,0.00,,,0.01,WUHU216HW,2013-02-21 17:01:00,
2013-02-21 09:06:00,38.5,-13.3,30.10,WSW,248,2.1,4.3,2,0.00,,,0.01,WUHU216HW,2013-02-21 17:06:00,
2013-02-21 09:11:00,38.7,-13.2,30.10,WSW,248,1.6,3.6,1,0.00,,,0.01,WUHU216HW,2013-02-21 17:11:00,
2013-02-21 09:17:00,39.2,-12.8,30.10,WSW,248,1.3,2.5,1,0.00,,,0.01,WUHU216HW,2013-02-21 17:17:00,
2013-02-21 09:22:00,39.6,-12.5,30.10,West,270,2.5,2.5,1,0.00,,,0.01,WUHU216HW,2013-02-21 17:22:00,
2013-02-21 09:27:00,40.0,-12.2,30.10,SW,236,1.7,2.7,1,0.00,,,0.01,WUHU216HW,2013-02-21 17:27:00,
2013-02-21 09:32:00,40.1,-12.1,30.10,WSW,248,2.0,2.7,1,0.00,,,0.01,WUHU216HW,2013-02-21 17:32:00,
2013-02-21 09:37:00,40.7,-11.6,30.10,WSW,248,1.8,2.5,1,0.00,,,0.01,WUHU216HW,2013-02-21 17:37:00,
2013-02-21 09:42:00,40.9,-11.5,30.10,West,270,1.1,2.0,1,0.00,,,0.01,WUHU216HW,2013-02-21 17:42:00,
2013-02-21 09:47:00,41.0,-11.3,30.10,SW,225,2.7,2.7,3,0.00,,,0.01,WUHU216HW,2013-02-21 17:47:00,
2013-02-21 09:52:00,41.2,-11.2,30.10,SSW,210,0.6,2.9,9,0.00,,,0.01,WUHU216HW,2013-02-21 17:52:00,
2013-02-21 09:57:00,41.4,-9.6,30.10,SW,228,1.5,2.9,11,0.00,,,0.01,WUHU216HW,2013-02-21 17:57:00,
2013-02-21 10:02:00,41.8,-10.8,30.10,SW,217,2.1,2.5,9,0.00,,,0.01,WUHU216HW,2013-02-21 18:02:00,
2013-02-21 10:07:00,42.1,-10.6,30.10,SSW,203,1.4,2.7,10,0.00,,,0.01,WUHU216HW,2013-02-21 18:07:00,
2013-02-21 10:13:00,42.8,-10.1,30.10,WSW,248,1.3,2.7,8,0.00,,,0.01,WUHU216HW,2013-02-21 18:13:00,
2013-02-21 10:18:00,43.2,-9.8,30.09,SSW,203,1.6,3.4,9,0.00,,,0.01,WUHU216HW,2013-02-21 18:18:00,
2013-02-21 10:23:00,43.6,-3.6,30.10,WSW,248,1.1,3.4,14,0.00,,,0.01,WUHU216HW,2013-02-21 18:23:00,
2013-02-21 10:28:00,43.6,2.3,30.10,SW,216,1.2,2.5,18,0.00,,,0.01,WUHU216HW,2013-02-21 18:28:00,
2013-02-21 10:33:00,44.1,2.7,30.09,SE,138,1.0,2.5,18,0.00,,,0.01,WUHU216HW,2013-02-21 18:33:00,
2013-02-21 10:38:00,44.6,1.7,30.08,SSW,203,2.2,4.0,17,0.00,,,0.01,WUHU216HW,2013-02-21 18:38:00,
2013-02-21 10:43:00,44.8,16.5,30.09,South,180,4.9,4.9,32,0.00,,,0.01,WUHU216HW,2013-02-21 18:43:00,
2013-02-21 10:48:00,45.2,18.9,30.08,SSW,207,4.2,6.9,35,0.00,,,0.01,WUHU216HW,2013-02-21 18:48:00,
2013-02-21 10:53:00,45.4,31.0,30.09,SSW,203,5.6,7.6,57,0.00,,,0.01,WUHU216HW,2013-02-21 18:53:00,
2013-02-21 10:58:00,45.7,37.5,30.08,WSW,246,6.2,9.2,73,0.00,,,0.01,WUHU216HW,2013-02-21 18:58:00,
2013-02-21 11:03:00,45.7,37.3,30.08,WSW,248,7.8,9.2,72,0.00,,,0.01,WUHU216HW,2013-02-21 19:03:00,
2013-02-21 11:08:00,45.7,37.3,30.08,SW,221,6.0,11.6,72,0.00,,,0.01,WUHU216HW,2013-02-21 19:08:00,
2013-02-21 11:13:00,45.7,37.9,30.08,SW,225,5.6,11.6,74,0.00,,,0.01,WUHU216HW,2013-02-21 19:13:00,
2013-02-21 11:18:00,45.5,37.4,30.08,SW,225,5.6,9.8,73,0.00,,,0.01,WUHU216HW,2013-02-21 19:18:00,
2013-02-21 11:23:00,45.7,37.3,30.08,SW,225,3.4,9.8,72,0.00,,,0.01,WUHU216HW,2013-02-21 19:23:00,
2013-02-21 11:28:00,45.5,37.4,30.09,SSW,209,4.2,8.3,73,0.00,,,0.01,WUHU216HW,2013-02-21 19:28:00,
2013-02-21 11:34:00,45.4,37.5,30.09,SW,217,4.5,8.3,74,0.00,,,0.01,WUHU216HW,2013-02-21 19:34:00,
2013-02-21 11:39:00,45.4,37.5,30.09,SSW,209,4.5,8.7,74,0.00,,,0.01,WUHU216HW,2013-02-21 19:39:00,
2013-02-21 11:44:00,45.4,37.5,30.09,SW,229,5.2,8.7,74,0.00,,,0.01,WUHU216HW,2013-02-21 19:44:00,
2013-02-21 11:49:00,45.7,37.5,30.09,SSW,203,6.0,7.4,73,0.00,,,0.01,WUHU216HW,2013-02-21 19:49:00,
2013-02-21 11:54:00,45.7,37.9,30.09,SW,230,3.8,7.4,74,0.00,,,0.01,WUHU216HW,2013-02-21 19:54:00,
2013-02-21 11:59:00,45.7,37.5,30.08,SSW,195,5.3,6.7,73,0.00,,,0.01,WUHU216HW,2013-02-21 19:59:00,
2013-02-21 12:04:00,45.5,37.7,30.09,West,260,5.2,8.5,74,0.00,,,0.01,WUHU216HW,2013-02-21 20:04:00,
2013-02-21 12:09:00,45.2,36.7,30.08,West,260,4.4,8.5,72,0.02,,,0.03,WUHU216HW,2013-02-21 20:09:00,
2013-02-21 12:14:00,45.0,35.5,30.08,WSW,243,5.0,8.5,69,0.02,,,0.03,WUHU216HW,2013-02-21 20:14:00,
2013-02-21 12:19:00,45.0,35.8,30.08,WSW,245,5.2,6.9,70,0.02,,,0.03,WUHU216HW,2013-02-21 20:19:00,
2013-02-21 12:24:00,44.8,36.6,30.09,SW,225,5.4,6.9,73,0.02,,,0.03,WUHU216HW,2013-02-21 20:24:00,
2013-02-21 12:29:00,44.6,35.1,30.08,SW,225,6.9,7.4,69,0.02,,,0.03,WUHU216HW,2013-02-21 20:29:00,
2013-02-21 12:34:00,44.6,32.0,30.09,WSW,248,4.9,7.4,61,0.03,,,0.04,WUHU216HW,2013-02-21 20:34:00,
2013-02-21 12:39:00,44.5,30.6,30.08,WSW,248,6.5,6.5,58,0.04,,,0.05,WUHU216HW,2013-02-21 20:39:00,
2013-02-21 12:44:00,44.3,30.0,30.09,West,274,2.8,7.2,57,0.05,,,0.06,WUHU216HW,2013-02-21 20:44:00,
2013-02-21 12:50:00,44.1,27.5,30.09,WSW,248,6.5,7.2,52,0.06,,,0.07,WUHU216HW,2013-02-21 20:50:00,
2013-02-21 12:55:00,43.7,30.3,30.08,SW,225,5.1,6.5,59,0.07,,,0.08,WUHU216HW,2013-02-21 20:55:00,
2013-02-21 13:00:00,43.7,29.9,30.07,SSW,194,3.9,7.6,58,0.07,,,0.08,WUHU216HW,2013-02-21 21:00:00,
2013-02-21 13:05:00,43.9,29.6,30.08,South,190,3.7,7.6,57,0.07,,,0.08,WUHU216HW,2013-02-21 21:05:00,
2013-02-21 13:10:00,44.3,29.5,30.07,SW,225,3.6,5.1,56,0.05,,,0.08,WUHU216HW,2013-02-21 21:10:00,
2013-02-21 13:15:00,44.3,29.1,30.07,South,180,1.8,4.3,55,0.05,,,0.08,WUHU216HW,2013-02-21 21:15:00,
2013-02-21 13:20:00,44.6,28.5,30.07,WSW,248,3.6,3.8,53,0.05,,,0.08,WUHU216HW,2013-02-21 21:20:00,
2013-02-21 13:25:00,45.0,28.9,30.07,South,180,3.8,4.7,53,0.05,,,0.08,WUHU216HW,2013-02-21 21:25:00,
2013-02-21 13:30:00,45.4,31.4,30.07,SSW,203,4.5,4.7,58,0.05,,,0.08,WUHU216HW,2013-02-21 21:30:00,
2013-02-21 13:35:00,45.0,33.6,30.07,WSW,248,2.7,4.7,64,0.04,,,0.08,WUHU216HW,2013-02-21 21:35:00,
2013-02-21 13:41:00,45.0,32.8,30.07,SSW,203,4.0,4.7,62,0.03,,,0.08,WUHU216HW,2013-02-21 21:41:00,
2013-02-21 13:46:00,45.2,32.6,30.07,South,180,2.9,4.7,61,0.02,,,0.08,WUHU216HW,2013-02-21 21:46:00,
2013-02-21 13:51:00,45.0,34.3,30.07,SW,225,2.5,4.7,66,0.01,,,0.08,WUHU216HW,2013-02-21 21:51:00,
2013-02-21 13:56:00,45.0,35.1,30.07,SW,225,3.4,4.7,68,0.00,,,0.08,WUHU216HW,2013-02-21 21:56:00,
2013-02-21 14:01:00,45.0,35.1,30.07,WSW,241,1.6,3.8,68,0.00,,,0.08,WUHU216HW,2013-02-21 22:01:00,
2013-02-21 14:06:00,44.8,34.9,30.07,WSW,246,1.3,3.4,68,0.00,,,0.08,WUHU216HW,2013-02-21 22:06:00,
2013-02-21 14:11:00,45.0,33.9,30.06,SSW,203,3.1,4.7,65,0.00,,,0.08,WUHU216HW,2013-02-21 22:11:00,
2013-02-21 14:16:00,45.0,34.7,30.07,SW,221,2.3,5.6,67,0.00,,,0.08,WUHU216HW,2013-02-21 22:16:00,
2013-02-21 14:21:00,45.4,36.9,30.07,SSW,203,4.0,5.6,72,0.00,,,0.08,WUHU216HW,2013-02-21 22:21:00,
2013-02-21 14:26:00,45.5,35.6,30.07,SW,221,2.4,5.4,68,0.00,,,0.08,WUHU216HW,2013-02-21 22:26:00,
2013-02-21 14:31:00,45.5,37.1,30.07,WSW,248,4.3,5.4,72,0.00,,,0.08,WUHU216HW,2013-02-21 22:31:00,
2013-02-21 14:37:00,45.5,37.7,30.07,WSW,251,3.2,5.4,74,0.00,,,0.08,WUHU216HW,2013-02-21 22:37:00,
2013-02-21 14:42:00,45.5,37.7,30.07,WSW,242,3.3,5.4,74,0.00,,,0.08,WUHU216HW,2013-02-21 22:42:00,
2013-02-21 14:47:00,45.5,38.1,30.07,SW,225,5.6,6.7,75,0.00,,,0.08,WUHU216HW,2013-02-21 22:47:00,
2013-02-21 14:52:00,45.5,38.1,30.07,WSW,242,4.2,8.1,75,0.00,,,0.08,WUHU216HW,2013-02-21 22:52:00,
2013-02-21 14:57:00,45.5,38.4,30.07,West,270,5.6,8.1,76,0.00,,,0.08,WUHU216HW,2013-02-21 22:57:00,
2013-02-21 15:02:00,45.5,38.1,30.07,WSW,255,5.3,7.8,75,0.00,,,0.08,WUHU216HW,2013-02-21 23:02:00,
2013-02-21 15:07:00,45.4,37.9,30.06,WSW,246,6.6,10.1,75,0.00,,,0.08,WUHU216HW,2013-02-21 23:07:00,
2013-02-21 15:12:00,45.2,37.7,30.06,SW,225,5.1,10.1,75,0.00,,,0.08,WUHU216HW,2013-02-21 23:12:00,
2013-02-21 15:17:00,45.2,37.7,30.06,SSW,203,6.9,10.1,75,0.00,,,0.08,WUHU216HW,2013-02-21 23:17:00,
2013-02-21 15:22:00,45.0,37.5,30.06,WSW,250,8.3,10.5,75,0.00,,,0.08,WUHU216HW,2013-02-21 23:22:00,
2013-02-21 15:27:00,45.2,37.7,30.07,SW,236,6.8,10.5,75,0.00,,,0.08,WUHU216HW,2013-02-21 23:27:00,
2013-02-21 15:32:00,45.0,37.5,30.06,WSW,240,6.9,9.8,75,0.00,,,0.08,WUHU216HW,2013-02-21 23:32:00,
2013-02-21 15:37:00,45.0,37.5,30.06,SW,225,6.2,9.8,75,0.00,,,0.08,WUHU216HW,2013-02-21 23:37:00,
2013-02-21 15:42:00,45.2,38.1,30.05,WSW,241,5.0,9.6,76,0.00,,,0.08,WUHU216HW,2013-02-21 23:42:00,
2013-02-21 15:48:00,45.4,37.9,30.06,WSW,250,3.5,7.6,75,0.00,,,0.08,WUHU216HW,2013-02-21 23:48:00,
2013-02-21 15:53:00,45.2,37.7,30.06,SW,225,6.0,8.3,75,0.00,,,0.08,WUHU216HW,2013-02-21 23:53:00,
2013-02-21 15:58:00,45.4,37.9,30.05,West,270,4.7,8.3,75,0.00,,,0.08,WUHU216HW,2013-02-21 23:58:00,
2013-02-21 16:03:00,45.5,38.4,30.05,WSW,251,4.8,5.8,76,0.00,,,0.08,WUHU216HW,2013-02-22 00:03:00,
2013-02-21 16:08:00,45.7,38.6,30.05,SW,225,6.0,6.7,76,0.00,,,0.08,WUHU216HW,2013-02-22 00:08:00,
2013-02-21 16:13:00,45.5,38.4,30.05,WSW,248,3.6,6.7,76,0.00,,,0.08,WUHU216HW,2013-02-22 00:13:00,
2013-02-21 16:18:00,45.4,37.9,30.05,SE,135,4.0,7.6,75,0.00,,,0.08,WUHU216HW,2013-02-22 00:18:00,
2013-02-21 16:23:00,45.2,37.7,30.05,SW,236,4.3,7.6,75,0.00,,,0.08,WUHU216HW,2013-02-22 00:23:00,
2013-02-21 16:28:00,45.2,37.7,30.05,SW,216,6.5,9.4,75,0.00,,,0.08,WUHU216HW,2013-02-22 00:28:00,
2013-02-21 16:33:00,45.0,37.5,30.04,SW,225,5.6,9.4,75,0.00,,,0.08,WUHU216HW,2013-02-22 00:33:00,
2013-02-21 16:38:00,45.0,37.5,30.05,SW,217,4.6,10.1,75,0.00,,,0.08,WUHU216HW,2013-02-22 00:38:00,
2013-02-21 16:43:00,44.8,37.4,30.05,SSW,203,3.1,10.1,75,0.00,,,0.08,WUHU216HW,2013-02-22 00:43:00,
2013-02-21 16:48:00,44.6,37.5,30.05,West,270,4.0,7.8,76,0.00,,,0.08,WUHU216HW,2013-02-22 00:48:00,
2013-02-21 16:54:00,44.6,37.2,30.05,SW,225,5.4,7.8,75,0.00,,,0.08,WUHU216HW,2013-02-22 00:54:00,
2013-02-21 16:59:00,44.5,37.4,30.05,West,270,4.3,8.5,76,0.00,,,0.08,WUHU216HW,2013-02-22 00:59:00,
2013-02-21 17:04:00,44.3,37.2,30.05,South,175,3.8,8.5,76,0.00,,,0.08,WUHU216HW,2013-02-22 01:04:00,
2013-02-21 17:09:00,44.3,36.8,30.05,SSE,158,2.5,6.0,75,0.00,,,0.08,WUHU216HW,2013-02-22 01:09:00,
2013-02-21 17:14:00,44.3,36.8,30.05,SW,214,2.7,5.8,75,0.00,,,0.08,WUHU216HW,2013-02-22 01:14:00,
2013-02-21 17:17:00,44.3,36.8,30.05,South,180,1.1,1.1,75,0.00,,,0.08,WUHU216HW,2013-02-22 01:17:00,
2013-02-21 17:19:00,44.3,36.8,30.05,South,180,1.1,3.6,75,0.00,,,0.08,WUHU216HW,2013-02-22 01:19:00,
2013-02-21 17:24:00,44.3,36.8,30.05,South,180,1.1,3.4,75,0.00,,,0.08,WUHU216HW,2013-02-22 01:24:00,
2013-02-21 18:00:00,43.6,35.5,30.05,SW,225,2.0,2.0,73,0.00,,,0.08,WUHU216HW,2013-02-22 02:00:00,
2013-02-21 18:05:00,43.4,35.3,30.05,SSW,206,2.7,4.7,73,0.00,,,0.08,WUHU216HW,2013-02-22 02:05:00,
2013-02-21 18:10:00,43.4,35.3,30.05,SSE,158,2.5,5.8,73,0.00,,,0.08,WUHU216HW,2013-02-22 02:10:00,
2013-02-21 18:15:00,43.2,35.2,30.05,SSW,206,2.7,8.7,73,0.00,,,0.08,WUHU216HW,2013-02-22 02:15:00,
2013-02-21 18:20:00,43.2,35.2,30.05,SSW,203,5.4,8.7,73,0.00,,,0.08,WUHU216HW,2013-02-22 02:20:00,
2013-02-21 18:25:00,43.2,34.8,30.05,South,182,3.4,5.4,72,0.00,,,0.08,WUHU216HW,2013-02-22 02:25:00,
2013-02-21 18:30:00,43.0,34.7,30.05,South,174,1.6,4.7,72,0.00,,,0.08,WUHU216HW,2013-02-22 02:30:00,
2013-02-21 18:36:00,43.0,34.7,30.06,SSE,157,3.8,6.3,72,0.00,,,0.08,WUHU216HW,2013-02-22 02:36:00,
2013-02-21 18:41:00,43.0,34.7,30.05,SSW,203,4.0,6.3,72,0.00,,,0.08,WUHU216HW,2013-02-22 02:41:00,
2013-02-21 18:46:00,43.0,34.3,30.06,SSE,166,1.3,6.3,71,0.00,,,0.08,WUHU216HW,2013-02-22 02:46:00,
2013-02-21 18:51:00,42.8,33.8,30.06,SSW,200,4.2,6.3,70,0.00,,,0.08,WUHU216HW,2013-02-22 02:51:00,
2013-02-21 18:56:00,42.8,34.2,30.06,South,180,4.0,5.4,71,0.00,,,0.08,WUHU216HW,2013-02-22 02:56:00,
2013-02-21 19:01:00,42.8,33.8,30.06,SSW,203,3.6,4.9,70,0.00,,,0.08,WUHU216HW,2013-02-22 03:01:00,
2013-02-21 19:06:00,42.8,33.8,30.06,SSE,167,4.3,5.6,70,0.00,,,0.08,WUHU216HW,2013-02-22 03:06:00,
2013-02-21 19:11:00,42.8,33.0,30.06,SSE,167,4.7,6.5,68,0.00,,,0.08,WUHU216HW,2013-02-22 03:11:00,
2013-02-21 19:16:00,42.8,33.5,30.06,SSE,152,2.2,6.5,69,0.00,,,0.08,WUHU216HW,2013-02-22 03:16:00,
2013-02-21 19:21:00,42.8,32.2,30.06,SSE,158,6.3,6.3,66,0.00,,,0.08,WUHU216HW,2013-02-22 03:21:00,
2013-02-21 19:27:00,42.8,32.7,30.06,SSE,158,5.8,6.3,67,0.00,,,0.08,WUHU216HW,2013-02-22 03:27:00,
2013-02-21 19:32:00,42.8,33.0,30.07,SSW,203,5.6,5.8,68,0.00,,,0.08,WUHU216HW,2013-02-22 03:32:00,
2013-02-21 19:37:00,42.8,32.7,30.06,SSE,158,4.3,5.6,67,0.00,,,0.08,WUHU216HW,2013-02-22 03:37:00,
2013-02-21 19:42:00,42.7,32.9,30.06,SSE,152,3.1,5.6,68,0.00,,,0.08,WUHU216HW,2013-02-22 03:42:00,
2013-02-21 19:47:00,42.7,31.3,30.06,SSE,163,4.5,6.3,64,0.00,,,0.08,WUHU216HW,2013-02-22 03:47:00,
2013-02-21 19:52:00,42.7,31.3,30.06,SSE,168,3.3,6.3,64,0.00,,,0.08,WUHU216HW,2013-02-22 03:52:00,
2013-02-21 19:57:00,42.7,31.3,30.06,South,180,3.6,6.9,64,0.00,,,0.08,WUHU216HW,2013-02-22 03:57:00,
2013-02-21 20:02:00,42.7,31.7,30.06,SSE,158,2.9,6.9,65,0.00,,,0.08,WUHU216HW,2013-02-22 04:02:00,
2013-02-21 20:07:00,42.7,31.7,30.07,SE,135,4.0,5.8,65,0.00,,,0.08,WUHU216HW,2013-02-22 04:07:00,
2013-02-21 20:12:00,42.7,31.3,30.06,SSW,203,4.0,5.8,64,0.00,,,0.08,WUHU216HW,2013-02-22 04:12:00,
2013-02-21 20:17:00,42.7,30.9,30.06,SSW,203,6.3,6.3,63,0.00,,,0.08,WUHU216HW,2013-02-22 04:17:00,
2013-02-21 20:22:00,42.7,30.5,30.06,SSW,211,3.2,6.9,62,0.00,,,0.08,WUHU216HW,2013-02-22 04:22:00,
2013-02-21 20:28:00,42.7,30.2,30.05,SW,216,4.6,7.6,61,0.00,,,0.08,WUHU216HW,2013-02-22 04:28:00,
2013-02-21 20:33:00,42.7,30.5,30.05,South,188,3.1,7.6,62,0.00,,,0.08,WUHU216HW,2013-02-22 04:33:00,
2013-02-21 20:38:00,42.5,30.3,30.05,South,180,4.3,6.3,62,0.00,,,0.08,WUHU216HW,2013-02-22 04:38:00,
2013-02-21 20:43:00,42.5,30.0,30.05,West,270,1.6,6.3,61,0.00,,,0.08,WUHU216HW,2013-02-22 04:43:00,
2013-02-21 20:48:00,42.5,29.2,30.05,South,171,3.2,6.3,59,0.00,,,0.08,WUHU216HW,2013-02-22 04:48:00,
2013-02-21 20:53:00,42.5,28.3,30.05,SSW,205,2.9,6.3,57,0.00,,,0.08,WUHU216HW,2013-02-22 04:53:00,
2013-02-21 20:58:00,42.5,28.7,30.05,SSW,207,2.8,5.8,58,0.00,,,0.08,WUHU216HW,2013-02-22 04:58:00,
2013-02-21 21:00:00,42.5,29.2,30.05,South,182,3.2,5.8,59,0.00,,,0.08,WUHU216HW,2013-02-22 05:00:00,
2013-02-21 21:02:00,42.5,28.7,30.05,SSW,200,3.9,6.0,58,0.00,,,0.08,WUHU216HW,2013-02-22 05:02:00,
2013-02-21 21:07:00,42.5,27.8,30.05,SSW,200,3.6,7.6,56,0.00,,,0.08,WUHU216HW,2013-02-22 05:07:00,
2013-02-21 21:12:00,42.5,28.3,30.05,SSW,203,2.5,7.6,57,0.00,,,0.08,WUHU216HW,2013-02-22 05:12:00,
2013-02-21 21:17:00,42.5,27.8,30.05,SSE,158,6.7,9.4,56,0.00,,,0.08,WUHU216HW,2013-02-22 05:17:00,
2013-02-21 21:22:00,42.5,26.9,30.06,South,185,5.6,9.4,54,0.00,,,0.08,WUHU216HW,2013-02-22 05:22:00,
2013-02-21 21:27:00,42.3,28.1,30.06,SE,135,2.5,7.2,57,0.00,,,0.08,WUHU216HW,2013-02-22 05:27:00,
2013-02-21 21:32:00,42.5,27.8,30.06,South,180,5.4,5.4,56,0.00,,,0.08,WUHU216HW,2013-02-22 05:32:00,
2013-02-21 21:37:00,42.5,26.6,30.05,South,171,3.9,6.0,53,0.00,,,0.08,WUHU216HW,2013-02-22 05:37:00,
2013-02-21 21:42:00,42.5,26.6,30.06,SSW,192,3.2,6.7,53,0.00,,,0.08,WUHU216HW,2013-02-22 05:42:00,
2013-02-21 21:47:00,42.5,26.1,30.06,South,180,4.9,8.1,52,0.00,,,0.08,WUHU216HW,2013-02-22 05:47:00,
2013-02-21 21:52:00,42.5,25.2,30.06,SSE,158,5.4,8.1,50,0.00,,,0.08,WUHU216HW,2013-02-22 05:52:00,
2013-02-21 21:58:00,42.5,25.2,30.06,SSE,158,4.9,7.4,50,0.00,,,0.08,WUHU216HW,2013-02-22 05:58:00,
2013-02-21 22:03:00,42.5,25.2,30.06,SE,135,4.5,6.7,50,0.00,,,0.08,WUHU216HW,2013-02-22 06:03:00,
2013-02-21 22:08:00,42.5,24.7,30.06,SSE,167,2.8,8.5,49,0.00,,,0.08,WUHU216HW,2013-02-22 06:08:00,
2013-02-21 22:13:00,42.5,25.2,30.06,South,182,3.7,8.5,50,0.00,,,0.08,WUHU216HW,2013-02-22 06:13:00,
2013-02-21 22:18:00,42.5,25.7,30.06,SSW,205,3.7,6.3,51,0.00,,,0.08,WUHU216HW,2013-02-22 06:18:00,
2013-02-21 22:23:00,42.5,25.7,30.07,SW,223,1.2,5.4,51,0.00,,,0.08,WUHU216HW,2013-02-22 06:23:00,
2013-02-21 22:28:00,42.5,24.7,30.07,SSE,153,1.3,6.3,49,0.00,,,0.08,WUHU216HW,2013-02-22 06:28:00,
2013-02-21 22:33:00,42.3,23.4,30.07,SSW,194,3.0,6.9,47,0.00,,,0.08,WUHU216HW,2013-02-22 06:33:00,
2013-02-21 22:38:00,42.1,23.8,30.07,SSW,203,6.3,6.9,48,0.00,,,0.08,WUHU216HW,2013-02-22 06:38:00,
2013-02-21 22:43:00,42.1,23.2,30.07,SSW,209,3.3,6.3,47,0.00,,,0.08,WUHU216HW,2013-02-22 06:43:00,
2013-02-21 22:48:00,42.1,23.2,30.08,SW,225,1.1,5.4,47,0.00,,,0.08,WUHU216HW,2013-02-22 06:48:00,
2013-02-21 22:53:00,42.1,22.7,30.08,SW,214,3.7,5.4,46,0.00,,,0.08,WUHU216HW,2013-02-22 06:53:00,
2013-02-21 22:58:00,42.1,21.6,30.08,SSW,196,2.9,5.8,44,0.00,,,0.08,WUHU216HW,2013-02-22 06:58:00,
2013-02-21 23:03:00,42.1,21.6,30.07,South,187,5.4,7.2,44,0.00,,,0.08,WUHU216HW,2013-02-22 07:03:00,
2013-02-21 23:09:00,42.1,21.6,30.07,SSW,202,3.0,7.2,44,0.00,,,0.08,WUHU216HW,2013-02-22 07:09:00,
2013-02-21 23:14:00,42.3,20.3,30.07,SSW,197,2.7,4.9,41,0.00,,,0.08,WUHU216HW,2013-02-22 07:14:00,
2013-02-21 23:19:00,42.1,21.6,30.07,SSE,158,6.5,6.5,44,0.00,,,0.08,WUHU216HW,2013-02-22 07:19:00,
2013-02-21 23:24:00,42.1,21.2,30.07,SSW,203,2.5,6.5,43,0.00,,,0.08,WUHU216HW,2013-02-22 07:24:00,
2013-02-21 23:29:00,42.3,19.7,30.06,SW,214,3.6,6.0,40,0.00,,,0.08,WUHU216HW,2013-02-22 07:29:00,
2013-02-21 23:34:00,42.1,21.2,30.06,SSW,203,4.0,4.7,43,0.00,,,0.08,WUHU216HW,2013-02-22 07:34:00,
2013-02-21 23:39:00,42.1,21.6,30.06,SSW,198,3.0,5.8,44,0.00,,,0.08,WUHU216HW,2013-02-22 07:39:00,
2013-02-21 23:44:00,42.1,20.1,30.06,SSW,204,4.8,7.6,41,0.00,,,0.08,WUHU216HW,2013-02-22 07:44:00,
2013-02-21 23:49:00,41.9,17.4,30.06,SW,225,3.4,7.6,37,0.00,,,0.08,WUHU216HW,2013-02-22 07:49:00,
2013-02-21 23:54:00,41.9,18.0,30.06,SSE,158,2.9,3.6,38,0.00,,,0.08,WUHU216HW,2013-02-22 07:54:00,
2013-02-21 23:59:00,41.9,14.8,30.06,SW,219,2.9,6.7,33,0.00,,,0.08,WUHU216HW,2013-02-22 07:59:00,